Location: Dilsberg
(49.3983°N, 8.8354°E)
Time: 07:02:46
(UTC+00:00)

Meteor 1-14 Rocket - Pass Details

Date: 19 May 2025
Orbit: 833 x 917 km, 81.3° (Epoch: 22 June)

Event Time Altitude Azimuth Distance (km) Brightness Sun altitude
Rises 21:12:20 0° 348° (NNW) 3,408 8.8 -15.0°
Reaches altitude 10° 21:14:45 10° 350° (N) 2,477 7.8 -15.2°
Maximum altitude 21:20:23 82° 78° (ENE) 871 4.2 -15.6°
Enters shadow 21:23:57 24° 164° (SSE) 1,716 5.2 -15.9°
